2022-148A

Last updated on Wed Jan 04 2023 00:02:48 GMT+0000 (Coordinated Universal Time)

1 54230U 22148A 23003.22202071 -.00000068 00000+0 10000-3 0 9993 2 54230 0.0431 115.7959 0007062 148.7524 81.3424 1.00271589 710
UTC large
Height (km)
Speed (km/s)
/
Latitude / Longitude
Inclination (degrees)
Orbital Period (minutes)
Azimuth
Elevation
Range (km)
Doppler Factor

Next 0 passes for location: London (51.5072 / 0.1276)

Sorry there are no passes over London.